Weather History for Morristown, NJ

Change the Weather History Date:

Tuesday, May 28, 2013

  Actual Average Record
Temperature  
Mean Temperature 56 °F -  
Max Temperature 64 °F 73 °F 93 °F (1965)
Min Temperature 48 °F 50 °F 37 °F (1971)
Degree Days  
Heating Degree Days 9    
Growing Degree Days 6 (Base 50)    
Moisture  
Dew Point 51 °F    
Average Humidity 86    
Maximum Humidity 100    
Minimum Humidity 52    
Precipitation  
Precipitation 0.02 in - - ()
Sea Level Pressure  
Sea Level Pressure 30.19 in    
Wind  
Wind Speed 0 mph (East)    
Max Wind Speed 5 mph    
Max Gust Speed -    
Visibility 7 miles    
Events Fog , Rain    
Averages and records for this station are not official NWS values.
T = Trace of Precipitation, MM = Missing Value Source: NWS Daily Summary

Daily Weather History Graph

Daily Weather History Graph

Search for Another Location

Airport:

Trip Planner

Search our weather history database for the weather conditions in past years. The results will help you decide how hot, cold, wet, or windy it might be!

Date:

Astronomy

May. 28, 2013 Rise Set
Actual Time 5:30 AM EDT 8:20 PM EDT
Civil Twilight 4:57 AM EDT 8:52 PM EDT
Nautical Twilight 4:17 AM EDT 9:33 PM EDT
Astronomical Twilight 3:30 AM EDT 10:20 PM EDT
Moon 11:41 PM EDT (5/28) 9:16 AM EDT (5/28)
Length of Visible Light 15h 54m
Length of Day
14h 49m
Waning Gibbous, 83% of the Moon is Illuminated
May 28
Waning Gibbous
May 31
Last Quarter
Jun 8
New
Jun 16
First Quarter
Jun 23
Full

Hourly Weather History & Observations

Time (EDT) Temp. Dew Point Humidity Pressure Visibility Wind Dir Wind Speed Gust Speed Precip Events Conditions
12:15 AM 53.6 °F 48.2 °F 82% 30.19 in 10.0 mi Calm Calm - N/A   Clear
12:35 AM 53.6 °F 48.2 °F 82% 30.19 in 10.0 mi Calm Calm - N/A   Clear
12:55 AM 53.6 °F 48.2 °F 82% 30.20 in 10.0 mi Calm Calm - N/A   Clear
1:15 AM 51.8 °F 48.2 °F 88% 30.20 in 10.0 mi Calm Calm - N/A   Clear
1:35 AM 53.6 °F 50.0 °F 88% 30.20 in 10.0 mi Calm Calm - N/A   Clear
1:55 AM 51.8 °F 48.2 °F 88% 30.20 in 10.0 mi Calm Calm - N/A   Clear
2:15 AM 51.8 °F 48.2 °F 88% 30.20 in 10.0 mi Calm Calm - N/A   Clear
2:35 AM 51.8 °F 48.2 °F 88% 30.20 in 10.0 mi Calm Calm - N/A   Clear
2:55 AM 51.8 °F 48.2 °F 88% 30.20 in 10.0 mi Calm Calm - N/A   Clear
3:15 AM 51.8 °F 48.2 °F 88% 30.19 in 10.0 mi Calm Calm - N/A   Clear
3:35 AM 51.8 °F 48.2 °F 88% 30.20 in 10.0 mi Calm Calm - N/A   Clear
3:55 AM 50.0 °F 46.4 °F 87% 30.20 in 10.0 mi Calm Calm - N/A   Clear
4:15 AM 50.0 °F 46.4 °F 87% 30.20 in 10.0 mi Calm Calm - N/A   Clear
4:35 AM 50.0 °F 44.6 °F 82% 30.19 in 10.0 mi Calm Calm - N/A   Clear
4:55 AM 50.0 °F 46.4 °F 87% 30.20 in 10.0 mi Calm Calm - N/A   Clear
5:15 AM 50.0 °F 46.4 °F 87% 30.19 in 10.0 mi Calm Calm - N/A   Clear
5:35 AM 48.2 °F 46.4 °F 93% 30.20 in 10.0 mi Calm Calm - N/A   Clear
5:55 AM 50.0 °F 46.4 °F 87% 30.20 in 10.0 mi Calm Calm - N/A   Clear
6:15 AM 50.0 °F 46.4 °F 87% 30.20 in 10.0 mi Calm Calm - N/A   Clear
6:35 AM 51.8 °F 48.2 °F 88% 30.21 in 10.0 mi Calm Calm - N/A   Clear
6:45 AM 50.0 °F 48.2 °F 94% 30.21 in 10.0 mi Calm Calm - N/A   Mostly Cloudy
7:45 AM 57.2 °F 50.0 °F 77% 30.22 in 10.0 mi Calm Calm - N/A   Mostly Cloudy
8:45 AM 60.8 °F 48.2 °F 63% 30.22 in 10.0 mi Calm Calm - N/A   Overcast
9:45 AM 64.4 °F 46.4 °F 52% 30.23 in 10.0 mi Calm Calm - N/A   Overcast
10:45 AM 62.6 °F 53.6 °F 72% 30.23 in 6.0 mi WSW 4.6 mph - N/A Rain Light Rain
11:45 AM 60.8 °F 53.6 °F 77% 30.22 in 5.0 mi South 3.5 mph - N/A Rain Light Rain
12:45 PM 59.0 °F 53.6 °F 82% 30.21 in 4.0 mi Calm Calm - N/A Rain Light Rain
1:45 PM 60.8 °F 55.4 °F 82% 30.22 in 5.0 mi Calm Calm - N/A Rain Light Rain
2:30 PM 59.0 °F 55.4 °F 88% 30.19 in 2.2 mi East 3.5 mph - N/A Rain Light Rain
2:45 PM 57.2 °F 55.4 °F 94% 30.20 in 2.2 mi Calm Calm - N/A Rain Light Rain
3:45 PM 57.2 °F 53.6 °F 88% 30.20 in 2.5 mi SSE 4.6 mph - N/A Rain Light Rain
4:45 PM 55.4 °F 53.6 °F 94% 30.18 in 2.2 mi NNE 3.5 mph - N/A Rain Light Rain
5:45 PM 55.4 °F 55.4 °F 100% 30.17 in 2.0 mi East 3.5 mph - N/A Rain Light Rain
6:45 PM 57.2 °F 55.4 °F 94% 30.16 in 1.8 mi Calm Calm - N/A Rain Light Rain
7:45 PM 57.2 °F 55.4 °F 94% 30.15 in 1.5 mi NNE 4.6 mph - N/A Rain Light Rain
9:45 PM 57.2 °F 55.4 °F 94% 30.15 in 1.0 mi NE 3.5 mph - N/A   Overcast
10:55 PM 59.0 °F 57.2 °F 94% 30.15 in 0.5 mi Calm Calm - N/A Fog Fog
11:15 PM 59.0 °F 57.2 °F 94% 30.14 in 0.2 mi Calm Calm - 0.01 in Fog Fog
11:35 PM 59.0 °F 57.2 °F 94% 30.13 in 0.2 mi Calm Calm - 0.02 in Fog Fog
11:55 PM 59.0 °F 57.2 °F 94% 30.14 in 0.2 mi Calm Calm - 0.01 in Fog Fog